This demonstration page uses our WeatherBlox Daily Observations layout. Learn more.

38.89511, -77.03637

Hourly Observations for October 4, 2018

Temp ( °F °C ) Dew Point ( °F °C ) Humidity (%) Winds ( mph kmh ) Pressure ( in mb ) Visibility ( mi km ) Precip ( " mm )
12:52 am 00:52 Clear 71 21.7 65 18.3 81 81 Calm 30.06 1018 10 16.0934 0 0
1:52 am 01:52 Partly Cloudy 71 21.7 65 18.3 81 81 Calm 30.05 1018 10 16.0934 0 0
2:52 am 02:52 Clear 70 21.1 65 18.3 84 84 Calm 30.03 1017 10 16.0934 0 0
3:52 am 03:52 Mostly Clear 69 20.6 65 18.3 87 87 E 3 6 30.03 1017 10 16.0934 0 0
4:52 am 04:52 Clear 69 20.6 65 18.3 87 87 Calm 30.03 1017 10 16.0934 0 0
5:52 am 05:52 Mostly Clear 69 20.6 65 18.3 87 87 NNE 3 6 30.05 1018 10 16.0934 0 0
6:52 am 06:52 Mostly Clear 69 20.6 66 18.9 90 90 Calm 30.04 1017 8 12.87472 0 0
7:35 am 07:35 Partly Cloudy 69 20.6 66 18.9 90 90 Calm 30.03 1017 8 12.87472 0 0
7:50 am 07:50 Mostly Cloudy 70 21 66 19 88 88 Calm 30.03 1017 7 11.26538 0 0
7:52 am 07:52 Mostly Cloudy 70 21.1 67 19.4 90 90 SSE 3 6 30.04 1017 7 11.26538 0 0
8:06 am 08:06 Mostly Cloudy with Mist and Fog 70 21.1 67 19.4 90 90 Calm 30.03 1017 6 9.65604 0 0
8:52 am 08:52 Mostly Cloudy with Mist and Fog 71 21.7 68 20 90 90 SSE 6 9 30.04 1017 5 8.0467 0 0
9:35 am 09:35 Mostly Cloudy with Mist and Fog 72 22.2 68 20 87 87 SSE 7 11 30.03 1017 4 6.43736 0 0
9:52 am 09:52 Mostly Cloudy with Mist and Fog 72 22.2 68 20 87 87 S 6 9 30.04 1017 5 8.0467 0 0
10:52 am 10:52 Mostly Cloudy 74 23.3 69 20.6 85 85 S 8 13 30.04 1017 9 14.48406 0 0
11:52 am 11:52 Mostly Cloudy 78 25.6 70 21.1 76 76 S 9 15 30.02 1017 10 16.0934 0 0
12:52 pm 12:52 Partly Cloudy 82 27.8 71 21.7 69 69 S 8 13 30 1016 10 16.0934 0 0
1:52 pm 13:52 Partly Cloudy 85 29.4 71 21.7 63 63 S 10 17 29.98 1015 10 16.0934 0 0
2:52 pm 14:52 Mostly Cloudy 87 30.6 68 20 53 53 S 12 19 29.96 1015 10 16.0934 0 0
3:52 pm 15:52 Mostly Cloudy 87 30.6 69 20.6 55 55 S 8 13 29.95 1014 10 16.0934 0 0
4:52 pm 16:52 Mostly Cloudy 85 29.4 69 20.6 59 59 S 10 17 29.93 1014 10 16.0934 0 0
5:52 pm 17:52 Mostly Cloudy 82 27.8 69 20.6 65 65 S 7 11 29.94 1014 10 16.0934 0 0
6:52 pm 18:52 Mostly Cloudy 81 27.2 69 20.6 67 67 S 6 9 29.95 1014 10 16.0934 0 0
7:52 pm 19:52 Mostly Cloudy 78 25.6 69 20.6 74 74 ENE 20 31 29.97 1015 10 16.0934 0 0
8:52 pm 20:52 Mostly Cloudy 76 24.4 70 21.1 82 82 NNE 5 7 29.98 1015 10 16.0934 0 0
9:52 pm 21:52 Mostly Cloudy 75 23.9 70 21.1 84 84 ENE 6 9 29.98 1015 10 16.0934 0 0
10:52 pm 22:52 Mostly Cloudy 76 24.4 69 20.6 79 79 SSE 3 6 29.98 1015 10 16.0934 0 0
11:52 pm 23:52 Cloudy 77 25 69 20.6 77 77 Calm 29.99 1016 10 16.0934 0 0

Powered by AerisWeather